This is the latest recevied weather packets stored in our database for station/object K6GMW. If no packets are shown the sender has not sent any weather packets the latest 1 day(s).
| Time | Temp. | Humidity | Pressure | Rain* | Wind** | Luminosity | Snow |
|---|---|---|---|---|---|---|---|
| 1778043285 | 24.44° C | 86% | 1008.7 hPa | 0 mm | 1.34 m/s, 171° | 0 W/m² | - |
| 1778042982 | 24.44° C | 85% | 1009 hPa | 0 mm | 1.34 m/s, 170° | 0 W/m² | - |
| 1778042680 | 24.44° C | 85% | 1008.9 hPa | 0 mm | 1.34 m/s, 170° | 0 W/m² | - |
| 1778042377 | 25° C | 84% | 1008.8 hPa | 0 mm | 1.79 m/s, 174° | 0 W/m² | - |
| 1778042074 | 25° C | 84% | 1008.9 hPa | 0 mm | 0.89 m/s, 189° | 0 W/m² | - |
| 1778041772 | 25° C | 84% | 1009 hPa | 0 mm | 1.34 m/s, 192° | 0 W/m² | - |
| 1778041471 | 25° C | 84% | 1008.7 hPa | 0 mm | 1.79 m/s, 192° | 0 W/m² | - |
| 1778041169 | 25° C | 83% | 1008.7 hPa | 0 mm | 1.79 m/s, 184° | 0 W/m² | - |
| 1778040866 | 25° C | 82% | 1008.4 hPa | 0 mm | 1.34 m/s, 188° | 0 W/m² | - |
| 1778040563 | 25° C | 82% | 1008.4 hPa | 0 mm | 1.79 m/s, 189° | 0 W/m² | - |
| 1778040261 | 25° C | 82% | 1008.6 hPa | 0 mm | 1.34 m/s, 176° | 0 W/m² | - |
| 1778039956 | 25° C | 82% | 1008.3 hPa | 0 mm | 2.24 m/s, 191° | 0 W/m² | - |
| 1778039655 | 25° C | 82% | 1008.3 hPa | 0 mm | 1.79 m/s, 199° | 0 W/m² | - |
| 1778039351 | 25° C | 82% | 1008.1 hPa | 0 mm | 3.58 m/s, 191° | 0 W/m² | - |
| 1778039048 | 25° C | 83% | 1007.9 hPa | 0 mm | 1.79 m/s, 155° | 0 W/m² | - |
| 1778038745 | 25° C | 83% | 1007.6 hPa | 0 mm | 1.34 m/s, 171° | 0 W/m² | - |
| 1778038442 | 25° C | 83% | 1007.8 hPa | 0 mm | 1.79 m/s, 163° | 0 W/m² | - |
| 1778038139 | 25° C | 82% | 1007.6 hPa | 0 mm | 1.34 m/s, 176° | 0 W/m² | - |
| 1778037836 | 25° C | 83% | 1007.5 hPa | 0 mm | 2.24 m/s, 137° | 0 W/m² | - |
| 1778037533 | 25° C | 83% | 1007.6 hPa | 0 mm | 1.79 m/s, 153° | 0 W/m² | - |
| 1778037230 | 25° C | 83% | 1007.6 hPa | 0 mm | 0.89 m/s, 170° | 0 W/m² | - |
| 1778036928 | 25° C | 82% | 1007.6 hPa | 0 mm | 1.79 m/s, 165° | 0 W/m² | - |
| 1778036626 | 25° C | 82% | 1007.5 hPa | 0 mm | 1.34 m/s, 173° | 0 W/m² | - |
| 1778036322 | 25° C | 82% | 1007.5 hPa | 0 mm | 1.79 m/s, 157° | 0 W/m² | - |
| 1778036018 | 25° C | 82% | 1007.6 hPa | 0 mm | 1.79 m/s, 170° | 0 W/m² | - |
* Rain latest hour (hover to see other rain measurements)
** Current wind speed in m/s (hover to see current wind gust speed)